Regional Weather Roundup
Issued by NWS

Home | Current Version | Previous Version | Text Only | Print | Product List | Glossary Off
Versions: 1 2 3 4 5 6 7 8 9 10 11 12 13 14 15 16 17 18 19 20 21 22 23 24 25 26 27 28 29 30 31 32 33 34 35 36 37 38 39 40 41 42 43 44 45 46 47 48 49 50

000
ASUS43 KMKX 210921
RWRWI

WISCONSIN REGIONAL WEATHER ROUNDUP
NATIONAL WEATHER SERVICE MILWAUKEE/SULLIVAN WI
400 AM CDT SAT OCT 21 2017

NOTE: "FAIR" INDICATES FEW OR NO CLOUDS BELOW 12,000 FEET WITH NO
SIGNIFICANT WEATHER AND/OR OBSTRUCTIONS TO VISIBILITY.

WIZ001-002-006>008-014>016-023>028-211000-
NORTHWEST WISCONSIN

CITY           SKY/WX    TMP DP  RH WIND       PRES   REMARKS
SUPERIOR ARPT  CLOUDY    64  51  64 S9G17     29.69F
ASHLAND        CLOUDY    64  47  53 S10G20    29.75F
HAYWARD        CLOUDY    62  47  57 S13       29.77F
SIREN          CLOUDY    63  49  62 S17G24    29.71F
CUMBERLAND     CLOUDY    57  46  67 S9        29.77F
RICE LAKE      CLOUDY    62  48  61 SE9G16    29.79F
CHETEK         CLOUDY    62  49  62 S9G16     29.79F
LADYSMITH      CLOUDY    62  46  55 SE7       29.83F
EAU CLAIRE     MOCLDY    63  47  55 S8        29.79F
MENOMONIE      CLOUDY    64  49  57 S16       29.78F
NEW RICHMOND   CLOUDY    61  49  64 S14G23    29.73F
OSCEOLA        MOCLDY    64  51  64 S9G21     29.75F
$$

WIZ003>005-009-010-017-018-211000-
NORTH CENTRAL WISCONSIN

CITY           SKY/WX    TMP DP  RH WIND       PRES   REMARKS
MANITOWISH WTR CLOUDY    59  44  57 SE7       29.85S
ARBOR VITAE    CLOUDY    62  46  56 S12       29.87S
WOODRUFF       CLOUDY    62  46  56 S12       29.87S
RHINELANDER    CLOUDY    61  45  55 S10G20    29.89F
EAGLE RIVER    NOT AVBL
LAND O LAKES   CLOUDY    60  43  53 S7        29.89F
PHILLIPS       MOCLDY    60  45  57 S10       29.83F
TOMAHAWK       CLOUDY    56  44  64 S3        29.88F
MEDFORD        CLOUDY    57  46  66 S9        29.86F
MERRILL        PTCLDY    61  46  56 S6        29.89F
$$

WIZ029-030-035-036-043>047-211000-
CENTRAL WISCONSIN

CITY           SKY/WX    TMP DP  RH WIND       PRES   REMARKS
WAUSAU         CLOUDY    61  45  55 S12       29.88F
MOSINEE        CLOUDY    59  45  58 S12       29.91S
MARSHFIELD     MOCLDY    58  44  60 S8        29.88S
STEVENS POINT  PTCLDY    58  44  59 S7        29.91F
WAUPACA        CLOUDY    61  47  58 SE5       29.93F
WAUTOMA        CLOUDY    62  47  57 S7          N/A
WISC RAPIDS    PTCLDY    63  46  54 S7        29.91F
CAMP DOUGLAS   NOT AVBL
$$

WIZ011>013-019>022-031-037>040-048>050-211000-
NORTHEAST WISCONSIN

CITY           SKY/WX    TMP DP  RH WIND       PRES   REMARKS
ANTIGO         PTCLDY    51  46  82 S8        29.93F
SHAWANO        CLOUDY    64  46  52 S3        29.93S
OCONTO         CLOUDY    63  47  55 S5        29.94F
STURGEON BAY   PTCLDY    57  50  77 S10       29.97S
GREEN BAY      PTCLDY    64  48  56 S9        29.96F
MANITOWOC      CLOUDY    56  50  80 S3        29.99F
APPLETON       CLOUDY    61  43  51 S10       29.95S
CLINTONVILLE   CLOUDY    61  46  59 S7        29.93F
OSHKOSH        PTCLDY    61  48  62 S10       29.96S
$$

WIZ032>034-041-042-053>061-211000-
SOUTHWEST WISCONSIN

CITY           SKY/WX    TMP DP  RH WIND       PRES   REMARKS
LA CROSSE      MOCLDY    65  50  58 S15       29.83F
SPARTA         CLOUDY    62  49  62 S8        29.87F
VIROQUA        MOCLDY    60  49  67 S15       29.88F
BOSCOBEL       CLEAR     64  49  57 S6        29.91F
PRAIRIE DU CHI CLEAR     64  48  56 SE8G16    29.88F
PLATTEVILLE    CLEAR     60  51  71 SE12      29.94F
$$

WIZ056-057-062-063-064-067-068-211000-
SOUTH CENTRAL WISCONSIN

CITY           SKY/WX    TMP DP  RH WIND       PRES   REMARKS
REEDSBURG      CLOUDY    63  49  60 S14G21    29.91F
BARABOO/DELLS  CLOUDY    62  47  56 S10G18    29.92F
LONE ROCK      PTCLDY    63  50  62 SE6       29.92F
MINERAL POINT  PTCLDY    61  50  67 SE10      29.94F
MADISON        MOCLDY    62  49  62 S7        29.97S
MIDDLETON      PTCLDY    63  49  62 S14       29.96F
WATERTOWN      CLOUDY    60  49  68 S7        29.98F
MONROE         CLOUDY    61  48  63 S13       29.97F
JANESVILLE     PTCLDY    63  48  59 S7        29.98F
$$

WIZ051-052-058>065-066-070>072-211000-
SOUTHEAST WISCONSIN

CITY           SKY/WX    TMP DP  RH WIND       PRES   REMARKS
MILWAUKEE      CLOUDY    65  48  54 S9        30.01F
WAUKESHA       CLOUDY    61  45  55 S6        30.02S
MILWAUKEE/TIMM MOCLDY    63  43  48 S8        30.01F
RACINE         MOCLDY    65  48  54 SW10G20   30.04R
BURLINGTON     PTCLDY    62  50  65 S12G17    30.01F
KENOSHA        CLOUDY    63  48  58 S10       30.03R
FOND DU LAC    CLOUDY    62  45  53 S10       29.96F
SHEBOYGAN      CLOUDY    61  49  64 S7        29.99F
WEST BEND      CLOUDY    61  45  55 S7        30.00S
JUNEAU         CLOUDY    58  47  67 SE7       29.99S
$$

LSZ147-162-211000-
LAKE SUPERIOR

STATION/POSITION TIME  TEMP    WIND        PRES    WAVE
                       AIR SEA DIR/SP/G            HT/PER
                 (UTC) (F)     (DEG/KT/KT) (MB)    (FT/S)
W MID LAKE BUOY  0850   59 52              1007.6F   2/ 5
DEVILS ISLAND    0900   63     190/ 12/ 15 1007.0F
PORT WING        0840          170/ 14/ 22 1006.1F
SAXON HARBOR     0830   67     190/ 13/ 22 1007.1F
$$

LMZ867-665-643>646-211000-
LAKE MICHIGAN

STATION/POSITION TIME  TEMP    WIND        PRES    WAVE
                       AIR SEA DIR/SP/G            HT/PER
                 (UTC) (F)     (DEG/KT/KT) (MB)    (FT/S)
S GREEN BAY BUOY 0900   61 58  170/ 12/ 14 1013.9
N MID LAKE BUOY  0850   61 58  180/ 17/ 21 1015.4F   5/ 6
NORTHPORT PIER   0840   58     160/  6/ 12 1014.6F
KEWAUNEE LAKESHO 0900   53     180/  7/ 10 1014.6
SHEBOYGAN LAKESH 0900   58     170/ 13/ 15 1015.3F
PORT WASHINGTON  0840   56     190/  4/  6 1016.6F
ATWATER BUOY     0809   58 53  160/  8/ 10 1016.4F
MILWAUKEE LAKESH 0900   64     200/  6/  7   N/A
S MID LAKE BUOY  0850   62 61  170/ 16/ 17 1017.6F   3/ 4
KENOSHA   LAKESH 0900   62     190/  7/ 12 1016.9
$$

TC  - TEMPERATURE IN CELSIUS
VSB - VISIBILITY IN STATUTE MILES
WCI - WIND CHILL INDEX
HX  - HEAT INDEX





USA.gov is the U.S. government's official web portal to all federal, state and local government web resources and services.